Previsão horária em Cesenatico

Hoje, 2 Agosto, Segunda-feira

Tempo Temperatura Precipitação Vento Pressão Humidade
00:00 +22°C° 0 mm 6 m/s 757 mmHg 59%
01:00 +21°C° 0 mm 6 m/s 757 mmHg 63%
02:00 +21°C° 0 mm 5 m/s 757 mmHg 65%
03:00 +21°C° 0 mm 5 m/s 757 mmHg 66%
04:00 +20°C° 0 mm 5 m/s 757 mmHg 68%
05:00 +22°C° 0 mm 5 m/s 758 mmHg 63%
06:00 +23°C° 0 mm 5 m/s 758 mmHg 57%
07:00 +25°C° 0 mm 5 m/s 759 mmHg 52%
08:00 +27°C° 0 mm 5 m/s 759 mmHg 46%
09:00 +29°C° 0 mm 5 m/s 759 mmHg 40%
10:00 +30°C° 0 mm 5 m/s 760 mmHg 33%
11:00 +32°C° 0 mm 5 m/s 759 mmHg 30%
12:00 +34°C° 0 mm 5 m/s 759 mmHg 26%
13:00 +35°C° 0 mm 5 m/s 758 mmHg 23%
14:00 +34°C° 0 mm 5 m/s 758 mmHg 23%
15:00 +34°C° 0 mm 5 m/s 758 mmHg 24%
16:00 +34°C° 0 mm 5 m/s 758 mmHg 24%
17:00 +32°C° 0 mm 5 m/s 758 mmHg 28%
18:00 +30°C° 0 mm 5 m/s 759 mmHg 31%
19:00 +28°C° 0 mm 5 m/s 759 mmHg 35%
20:00 +26°C° 0 mm 5 m/s 759 mmHg 39%
21:00 +25°C° 0 mm 4 m/s 760 mmHg 43%
22:00 +22°C° 0 mm 4 m/s 760 mmHg 47%
23:00 +22°C° 0 mm 4 m/s 760 mmHg 50%

Amanhã, 3 Agosto, Terça-feira

Tempo Temperatura Precipitação Vento Pressão Humidade
00:00 +21°C° 0 mm 3 m/s 760 mmHg 54%
01:00 +20°C° 0 mm 3 m/s 761 mmHg 57%
02:00 +20°C° 0 mm 3 m/s 761 mmHg 58%
03:00 +19°C° 0 mm 3 m/s 760 mmHg 59%
04:00 +19°C° 0 mm 4 m/s 760 mmHg 60%
05:00 +21°C° 0 mm 3 m/s 761 mmHg 55%
06:00 +22°C° 0 mm 3 m/s 761 mmHg 50%
07:00 +24°C° 0 mm 3 m/s 761 mmHg 45%
08:00 +27°C° 0 mm 2 m/s 761 mmHg 38%
09:00 +29°C° 0 mm 2 m/s 761 mmHg 32%
10:00 +32°C° 0 mm 1 m/s 761 mmHg 25%
11:00 +34°C° 0 mm 2 m/s 760 mmHg 24%
12:00 +35°C° 0 mm 3 m/s 760 mmHg 23%
13:00 +35°C° 0 mm 4 m/s 759 mmHg 22%
14:00 +35°C° 0 mm 5 m/s 759 mmHg 22%
15:00 +35°C° 0 mm 5 m/s 758 mmHg 23%
16:00 +35°C° 0 mm 6 m/s 758 mmHg 24%
17:00 +34°C° 0 mm 6 m/s 758 mmHg 26%
18:00 +32°C° 0 mm 6 m/s 758 mmHg 29%
19:00 +30°C° 0 mm 6 m/s 758 mmHg 32%
20:00 +28°C° 0 mm 6 m/s 758 mmHg 36%
21:00 +26°C° 0 mm 6 m/s 759 mmHg 41%
22:00 +24°C° 0 mm 6 m/s 759 mmHg 45%
23:00 +23°C° 0 mm 5 m/s 759 mmHg 48%

Depois de amanhã, 4 Agosto, Quarta-feira

Tempo Temperatura Precipitação Vento Pressão Humidade
00:00 +22°C° 0 mm 5 m/s 760 mmHg 51%
01:00 +22°C° 0 mm 4 m/s 760 mmHg 54%
02:00 +21°C° 0 mm 4 m/s 759 mmHg 55%
03:00 +21°C° 0 mm 3 m/s 759 mmHg 57%
04:00 +20°C° 0 mm 3 m/s 759 mmHg 58%
05:00 +23°C° 0 mm 2 m/s 759 mmHg 53%
06:00 +24°C° 0 mm 2 m/s 759 mmHg 48%
07:00 +26°C° 0 mm 2 m/s 759 mmHg 43%
08:00 +28°C° 0 mm 2 m/s 759 mmHg 38%
09:00 +30°C° 0 mm 1 m/s 759 mmHg 33%
10:00 +32°C° 0 mm 1 m/s 759 mmHg 28%
11:00 +32°C° 0 mm 2 m/s 759 mmHg 28%
12:00 +34°C° 0 mm 3 m/s 758 mmHg 28%
13:00 +34°C° 0 mm 4 m/s 758 mmHg 28%
14:00 +35°C° 0 mm 4 m/s 757 mmHg 28%
15:00 +35°C° 0 mm 5 m/s 757 mmHg 29%
16:00 +35°C° 0 mm 5 m/s 757 mmHg 29%
17:00 +34°C° 0 mm 4 m/s 757 mmHg 33%
18:00 +32°C° 0 mm 4 m/s 757 mmHg 38%
19:00 +29°C° 0 mm 3 m/s 757 mmHg 42%
20:00 +28°C° 0 mm 4 m/s 757 mmHg 47%
21:00 +26°C° 0 mm 4 m/s 757 mmHg 53%
22:00 +25°C° 0 mm 4 m/s 757 mmHg 58%
23:00 +23°C° 0.1 mm 4 m/s 757 mmHg 64%

5 Agosto, Quinta-feira

Tempo Temperatura Precipitação Vento Pressão Humidade
00:00 +22°C° 0.1 mm 4 m/s 757 mmHg 70%
01:00 +21°C° 0.1 mm 4 m/s 757 mmHg 75%
02:00 +21°C° 0.1 mm 4 m/s 757 mmHg 78%
03:00 +21°C° 0.1 mm 3 m/s 757 mmHg 80%
04:00 +20°C° 0.1 mm 2 m/s 757 mmHg 82%
05:00 +21°C° 0 mm 3 m/s 757 mmHg 78%
06:00 +22°C° 0 mm 3 m/s 757 mmHg 74%
07:00 +24°C° 0 mm 3 m/s 757 mmHg 70%
08:00 +26°C° 0 mm 4 m/s 757 mmHg 59%
09:00 +29°C° 0 mm 5 m/s 757 mmHg 47%
10:00 +32°C° 0 mm 6 m/s 757 mmHg 36%
11:00 +32°C° 0 mm 5 m/s 756 mmHg 33%
12:00 +33°C° 0 mm 5 m/s 756 mmHg 30%
13:00 +34°C° 0 mm 5 m/s 756 mmHg 27%
14:00 +34°C° 0 mm 5 m/s 755 mmHg 26%
15:00 +34°C° 0 mm 5 m/s 755 mmHg 25%
16:00 +34°C° 0 mm 5 m/s 755 mmHg 24%
17:00 +32°C° 0 mm 5 m/s 755 mmHg 29%
18:00 +29°C° 0 mm 5 m/s 755 mmHg 34%
19:00 +28°C° 0 mm 5 m/s 755 mmHg 40%
20:00 +26°C° 0.1 mm 5 m/s 755 mmHg 48%
21:00 +23°C° 0.1 mm 5 m/s 756 mmHg 56%
22:00 +21°C° 0.1 mm 5 m/s 756 mmHg 64%
23:00 +21°C° 0.2 mm 5 m/s 756 mmHg 69%

6 Agosto, Sexta-feira

Tempo Temperatura Precipitação Vento Pressão Humidade
00:00 +20°C° 0.2 mm 5 m/s 756 mmHg 73%
01:00 +20°C° 0.2 mm 5 m/s 757 mmHg 78%
02:00 +20°C° 0 mm 4 m/s 757 mmHg 79%
03:00 +20°C° 0 mm 4 m/s 757 mmHg 79%
04:00 +19°C° 0 mm 4 m/s 757 mmHg 80%
05:00 +21°C° 0 mm 3 m/s 757 mmHg 75%
06:00 +22°C° 0 mm 3 m/s 757 mmHg 70%
07:00 +24°C° 0 mm 3 m/s 757 mmHg 65%
08:00 +26°C° 0 mm 2 m/s 757 mmHg 57%
09:00 +28°C° 0 mm 2 m/s 757 mmHg 50%
10:00 +31°C° 0 mm 2 m/s 757 mmHg 42%
11:00 +31°C° 0 mm 3 m/s 757 mmHg 40%
12:00 +33°C° 0 mm 4 m/s 757 mmHg 39%
13:00 +34°C° 0 mm 5 m/s 757 mmHg 37%
14:00 +33°C° 0 mm 4 m/s 756 mmHg 39%
15:00 +33°C° 0 mm 4 m/s 756 mmHg 41%
16:00 +32°C° 0 mm 4 m/s 756 mmHg 44%
17:00 +30°C° 0 mm 4 m/s 756 mmHg 48%
18:00 +29°C° 0 mm 3 m/s 756 mmHg 52%
19:00 +28°C° 0 mm 3 m/s 757 mmHg 57%
20:00 +26°C° 0 mm 3 m/s 757 mmHg 61%
21:00 +25°C° 0 mm 3 m/s 757 mmHg 64%
22:00 +24°C° 0 mm 3 m/s 757 mmHg 68%
23:00 +23°C° 0 mm 2 m/s 757 mmHg 67%

7 Agosto, Sábado

Tempo Temperatura Precipitação Vento Pressão Humidade
00:00 +23°C° 0 mm 2 m/s 757 mmHg 65%
01:00 +23°C° 0 mm 2 m/s 757 mmHg 64%
02:00 +21°C° 0 mm 2 m/s 757 mmHg 65%
03:00 +21°C° 0 mm 2 m/s 757 mmHg 65%
04:00 +21°C° 0 mm 2 m/s 757 mmHg 66%
05:00 +23°C° 0 mm 1 m/s 758 mmHg 60%
06:00 +25°C° 0 mm 1 m/s 758 mmHg 55%
07:00 +26°C° 0 mm 1 m/s 758 mmHg 49%
08:00 +28°C° 0 mm 1 m/s 758 mmHg 43%
09:00 +31°C° 0 mm 1 m/s 758 mmHg 38%
10:00 +33°C° 0 mm 1 m/s 758 mmHg 32%
11:00 +35°C° 0 mm 2 m/s 758 mmHg 31%
12:00 +36°C° 0 mm 3 m/s 757 mmHg 30%
13:00 +37°C° 0 mm 4 m/s 757 mmHg 29%
14:00 +37°C° 0 mm 5 m/s 757 mmHg 29%
15:00 +37°C° 0 mm 5 m/s 757 mmHg 30%
16:00 +36°C° 0 mm 5 m/s 757 mmHg 31%
17:00 +34°C° 0 mm 5 m/s 757 mmHg 38%
18:00 +33°C° 0 mm 5 m/s 757 mmHg 44%
19:00 +30°C° 0 mm 5 m/s 757 mmHg 50%
20:00 +29°C° 0 mm 4 m/s 757 mmHg 53%
21:00 +28°C° 0 mm 4 m/s 757 mmHg 56%
22:00 +27°C° 0 mm 4 m/s 758 mmHg 58%
23:00 +26°C° 0 mm 3 m/s 758 mmHg 59%
Mostrar mais

Necessitamos do seu Consentimento

A Meteoprog e os seus Fornecedores de Serviços podem armazenar e aceder a dados pessoais como cookies, identificadores do dispositivo ou outras tecnologias semelhantes existentes no seu dispositivo e processar estes dados para personalizar conteúdos e anúncios, assim como funcionalidades nas redes sociais e análise de tráfego.

  • Armazenar e/ou aceder a informações no seu dispositivo

    Os cookies, identificadores do dispositivo ou outras informações podem ser armazenados ou acedidos no seu dispositivo, para os fins acima indicados.

  • Anúncios e conteúdos personalizados, medição de anúncios e conteúdos, dados sobre o público-alvo e desenvolvimento de produtos

    Os anúncios e os conteúdos podem ser personalizados com base num perfil. Podem ser adicionados dados adicionais para uma maior personalização dos anúncios e dos conteúdos. A eficácia dos anúncios e dos conteúdos pode ser medida. Podem ser obtidas informações sobre o público que visualizou os anúncios e os conteúdos. Estes dados podem ser usados para desenvolver ou melhorar sistemas, softwares ou a experiência do utilizador.

Ao clicar em "Eu concordo”, permitirá o uso de cookies, identificadores do dispositivo e web beacons mencionados ou outras tecnologias semelhantes. As configurações do navegador do seu dispositivo podem ser alteradas.

Para certos fins, podem ser invocados interesses legítimos ao invés de consentimento. Pode ler mais informação sobre este assunto na nossa Política de Privacidade e Cookies.